When you browse on this site, cookies collect data to enhance your experience and personalize the content and advertising you see.
Visit our Privacy Policy to learn more. By continuing to use the site, you agree to this use of cookies and data.

Previsão horária em Aalsmeer

Hoje, 21 Setembro, Segunda-feira

Tempo Temperatura Precipitação Vento Pressão Humidade
00:00 +13°C° 0 mm 4 m/s 763 mmHg 83%
01:00 +12°C° 0 mm 3 m/s 763 mmHg 84%
02:00 +12°C° 0 mm 3 m/s 763 mmHg 84%
03:00 +12°C° 0 mm 3 m/s 763 mmHg 85%
04:00 +12°C° 0 mm 3 m/s 763 mmHg 85%
05:00 +12°C° 0 mm 3 m/s 763 mmHg 84%
06:00 +13°C° 0 mm 2 m/s 763 mmHg 81%
07:00 +15°C° 0 mm 2 m/s 763 mmHg 73%
08:00 +17°C° 0 mm 2 m/s 763 mmHg 65%
09:00 +20°C° 0 mm 1 m/s 762 mmHg 57%
10:00 +21°C° 0 mm 1 m/s 762 mmHg 53%
11:00 +23°C° 0 mm 1 m/s 762 mmHg 48%
12:00 +24°C° 0 mm 1 m/s 762 mmHg 44%
13:00 +24°C° 0 mm 1 m/s 762 mmHg 44%
14:00 +24°C° 0 mm 1 m/s 761 mmHg 45%
15:00 +25°C° 0 mm 1 m/s 761 mmHg 45%
16:00 +23°C° 0 mm 2 m/s 761 mmHg 52%
17:00 +20°C° 0 mm 2 m/s 761 mmHg 59%
18:00 +18°C° 0 mm 2 m/s 760 mmHg 66%
19:00 +18°C° 0 mm 1 m/s 761 mmHg 69%
20:00 +16°C° 0 mm 1 m/s 761 mmHg 71%
21:00 +16°C° 0 mm 1 m/s 761 mmHg 74%
22:00 +15°C° 0 mm 1 m/s 761 mmHg 75%
23:00 +15°C° 0 mm 1 m/s 760 mmHg 76%

Amanhã, 22 Setembro, Terça-feira

Tempo Temperatura Precipitação Vento Pressão Humidade
00:00 +15°C° 0 mm 1 m/s 760 mmHg 77%
01:00 +13°C° 0 mm 0 m/s 760 mmHg 78%
02:00 +13°C° 0 mm 0 m/s 759 mmHg 78%
03:00 +13°C° 0 mm 0 m/s 759 mmHg 79%
04:00 +13°C° 0 mm 0 m/s 759 mmHg 79%
05:00 +14°C° 0 mm 1 m/s 759 mmHg 79%
06:00 +14°C° 0 mm 1 m/s 759 mmHg 79%
07:00 +16°C° 0 mm 1 m/s 758 mmHg 73%
08:00 +19°C° 0 mm 1 m/s 758 mmHg 66%
09:00 +21°C° 0 mm 1 m/s 758 mmHg 59%
10:00 +21°C° 0 mm 2 m/s 758 mmHg 55%
11:00 +23°C° 0 mm 2 m/s 757 mmHg 50%
12:00 +24°C° 0 mm 2 m/s 757 mmHg 45%
13:00 +24°C° 0 mm 2 m/s 757 mmHg 46%
14:00 +24°C° 0 mm 2 m/s 756 mmHg 47%
15:00 +24°C° 0 mm 2 m/s 755 mmHg 47%
16:00 +21°C° 0 mm 2 m/s 755 mmHg 52%
17:00 +19°C° 0 mm 2 m/s 755 mmHg 57%
18:00 +19°C° 0 mm 1 m/s 754 mmHg 62%
19:00 +18°C° 0 mm 1 m/s 754 mmHg 63%
20:00 +17°C° 0 mm 2 m/s 754 mmHg 64%
21:00 +16°C° 0 mm 2 m/s 754 mmHg 65%
22:00 +16°C° 0 mm 2 m/s 754 mmHg 65%
23:00 +16°C° 0 mm 3 m/s 753 mmHg 65%

Depois de amanhã, 23 Setembro, Quarta-feira

Tempo Temperatura Precipitação Vento Pressão Humidade
00:00 +16°C° 0 mm 3 m/s 753 mmHg 65%
01:00 +14°C° 0 mm 3 m/s 753 mmHg 69%
02:00 +14°C° 0 mm 4 m/s 753 mmHg 73%
03:00 +14°C° 0 mm 4 m/s 753 mmHg 77%
04:00 +14°C° 0 mm 4 m/s 753 mmHg 80%
05:00 +15°C° 0 mm 4 m/s 753 mmHg 84%
06:00 +15°C° 0 mm 5 m/s 753 mmHg 88%
07:00 +16°C° 0 mm 5 m/s 753 mmHg 83%
08:00 +17°C° 0 mm 6 m/s 753 mmHg 78%
09:00 +19°C° 0 mm 6 m/s 753 mmHg 73%
10:00 +20°C° 0.2 mm 6 m/s 752 mmHg 71%
11:00 +20°C° 0.2 mm 7 m/s 752 mmHg 70%
12:00 +21°C° 0.2 mm 7 m/s 752 mmHg 68%
13:00 +20°C° 0.2 mm 7 m/s 752 mmHg 69%
14:00 +20°C° 0.2 mm 7 m/s 752 mmHg 70%
15:00 +20°C° 0.2 mm 6 m/s 751 mmHg 71%
16:00 +19°C° 0.1 mm 6 m/s 751 mmHg 72%
17:00 +17°C° 0.1 mm 5 m/s 751 mmHg 73%
18:00 +17°C° 0.1 mm 5 m/s 750 mmHg 74%
19:00 +16°C° 0 mm 5 m/s 750 mmHg 75%
20:00 +16°C° 0 mm 5 m/s 750 mmHg 77%
21:00 +16°C° 0 mm 5 m/s 749 mmHg 78%
22:00 +15°C° 0.3 mm 6 m/s 749 mmHg 78%
23:00 +15°C° 0.3 mm 7 m/s 749 mmHg 77%

24 Setembro, Quinta-feira

Tempo Temperatura Precipitação Vento Pressão Humidade
00:00 +15°C° 0.3 mm 8 m/s 749 mmHg 77%
01:00 +15°C° 0 mm 8 m/s 749 mmHg 75%
02:00 +15°C° 0 mm 8 m/s 750 mmHg 73%
03:00 +13°C° 0 mm 8 m/s 750 mmHg 71%
04:00 +14°C° 0 mm 7 m/s 751 mmHg 70%
05:00 +13°C° 0 mm 6 m/s 751 mmHg 70%
06:00 +11°C° 0 mm 6 m/s 752 mmHg 69%
07:00 +13°C° 0 mm 6 m/s 752 mmHg 65%
08:00 +14°C° 0 mm 5 m/s 752 mmHg 60%
09:00 +15°C° 0 mm 5 m/s 753 mmHg 55%
10:00 +15°C° 0 mm 5 m/s 752 mmHg 52%
11:00 +16°C° 0 mm 6 m/s 752 mmHg 50%
12:00 +17°C° 0 mm 6 m/s 752 mmHg 47%
13:00 +17°C° 0 mm 6 m/s 751 mmHg 47%
14:00 +17°C° 0 mm 6 m/s 751 mmHg 48%
15:00 +17°C° 0 mm 7 m/s 750 mmHg 49%
16:00 +16°C° 0.2 mm 7 m/s 750 mmHg 52%
17:00 +15°C° 0.2 mm 7 m/s 750 mmHg 56%
18:00 +14°C° 0.2 mm 6 m/s 749 mmHg 60%
19:00 +13°C° 1.3 mm 6 m/s 749 mmHg 68%
20:00 +12°C° 1.3 mm 5 m/s 750 mmHg 77%
21:00 +12°C° 1.3 mm 5 m/s 750 mmHg 86%
22:00 +10°C° 0.6 mm 5 m/s 750 mmHg 85%
23:00 +10°C° 0.6 mm 6 m/s 749 mmHg 84%

25 Setembro, Sexta-feira

Tempo Temperatura Precipitação Vento Pressão Humidade
00:00 +10°C° 0.6 mm 6 m/s 749 mmHg 83%
01:00 +10°C° 0.6 mm 5 m/s 749 mmHg 83%
02:00 +9°C° 0.6 mm 5 m/s 749 mmHg 82%
03:00 +10°C° 0.6 mm 4 m/s 749 mmHg 82%
04:00 +8°C° 0.5 mm 4 m/s 749 mmHg 83%
05:00 +8°C° 0.5 mm 4 m/s 749 mmHg 83%
06:00 +8°C° 0.5 mm 4 m/s 749 mmHg 84%
07:00 +10°C° 0.1 mm 4 m/s 749 mmHg 79%
08:00 +11°C° 0.1 mm 4 m/s 750 mmHg 74%
09:00 +12°C° 0.1 mm 4 m/s 750 mmHg 70%
10:00 +13°C° 0 mm 4 m/s 750 mmHg 64%
11:00 +14°C° 0 mm 3 m/s 750 mmHg 57%
12:00 +16°C° 0 mm 3 m/s 751 mmHg 51%
13:00 +15°C° 0.2 mm 2 m/s 751 mmHg 54%
14:00 +15°C° 0.2 mm 2 m/s 751 mmHg 57%
15:00 +15°C° 0.2 mm 2 m/s 751 mmHg 59%
16:00 +13°C° 0.2 mm 3 m/s 752 mmHg 64%
17:00 +12°C° 0.2 mm 4 m/s 752 mmHg 68%
18:00 +10°C° 0.2 mm 5 m/s 753 mmHg 73%
19:00 +10°C° 0.4 mm 6 m/s 754 mmHg 73%
20:00 +10°C° 0.4 mm 7 m/s 755 mmHg 74%
21:00 +10°C° 0.4 mm 7 m/s 756 mmHg 74%
22:00 +10°C° 0.1 mm 7 m/s 756 mmHg 72%
23:00 +9°C° 0.1 mm 8 m/s 757 mmHg 71%

26 Setembro, Sábado

Tempo Temperatura Precipitação Vento Pressão Humidade
00:00 +9°C° 0.1 mm 8 m/s 757 mmHg 69%
01:00 +9°C° 0 mm 8 m/s 757 mmHg 67%
02:00 +9°C° 0 mm 8 m/s 757 mmHg 66%
03:00 +10°C° 0 mm 8 m/s 758 mmHg 64%
04:00 +9°C° 0.1 mm 8 m/s 758 mmHg 64%
05:00 +9°C° 0.1 mm 7 m/s 759 mmHg 63%
06:00 +9°C° 0.1 mm 7 m/s 759 mmHg 63%
07:00 +10°C° 0.1 mm 7 m/s 759 mmHg 59%
08:00 +10°C° 0.1 mm 7 m/s 760 mmHg 55%
09:00 +11°C° 0.1 mm 7 m/s 760 mmHg 52%
10:00 +11°C° 0.2 mm 7 m/s 760 mmHg 51%
11:00 +12°C° 0.2 mm 7 m/s 760 mmHg 50%
12:00 +12°C° 0.2 mm 7 m/s 760 mmHg 50%
13:00 +12°C° 0.1 mm 7 m/s 760 mmHg 49%
14:00 +12°C° 0.1 mm 7 m/s 760 mmHg 49%
15:00 +11°C° 0.1 mm 7 m/s 760 mmHg 48%
16:00 +10°C° 0 mm 6 m/s 760 mmHg 52%
17:00 +9°C° 0 mm 5 m/s 760 mmHg 56%
18:00 +8°C° 0 mm 5 m/s 760 mmHg 60%
19:00 +8°C° 0 mm 4 m/s 760 mmHg 62%
20:00 +8°C° 0 mm 4 m/s 760 mmHg 63%
21:00 +8°C° 0 mm 4 m/s 761 mmHg 64%
22:00 +9°C° 0.1 mm 3 m/s 760 mmHg 63%
23:00 +9°C° 0.1 mm 3 m/s 760 mmHg 62%
Mostrar mais